Weather History for Kirksville, MO

Change the Weather History Date:

Friday, March 21, 2014

  Actual Average Record
Temperature  
Mean Temperature 47 °F 43 °F  
Max Temperature 64 °F 53 °F 83 °F (1938)
Min Temperature 30 °F 32 °F 8 °F (1965)
Degree Days  
Heating Degree Days 18 22  
Month to date heating degree days 649 553  
Since 1 July heating degree days 5619 5086  
Cooling Degree Days 0 0  
Month to date cooling degree days 0 0  
Year to date cooling degree days 0 0  
Moisture  
Dew Point 30 °F    
Average Humidity 61    
Maximum Humidity 89    
Minimum Humidity 32    
Precipitation  
Precipitation 0.00 in 0.08 in 0.75 in (2012)
Month to date precipitation 0.77 1.76  
Year to date precipitation 4.32 4.56  
Sea Level Pressure  
Sea Level Pressure 29.89 in    
Wind  
Wind Speed 11 mph (NW)    
Max Wind Speed 23 mph    
Max Gust Speed 32 mph    
Visibility 10 miles    
Events      
T = Trace of Precipitation, MM = Missing Value Source: NWS Daily Summary

Daily Weather History Graph

Daily Weather History Graph

Search for Another Location

Airport:

Trip Planner

Search our weather history database for the weather conditions in past years. The results will help you decide how hot, cold, wet, or windy it might be!

Date:

Astronomy

Mar. 21, 2014 Rise Set
Actual Time 7:11 AM CDT 7:23 PM CDT
Civil Twilight 6:44 AM CDT 7:50 PM CDT
Nautical Twilight 6:13 AM CDT 8:22 PM CDT
Astronomical Twilight 5:40 AM CDT 8:54 PM CDT
Moon No Moon Rise 10:04 AM CDT (3/21)
Length of Visible Light 13h 05m
Length of Day
12h 11m
Waning Gibbous, 75% of the Moon is Illuminated
Mar 21
Waning Gibbous
Mar 23
Last Quarter
Mar 30
New
Apr 7
First Quarter
Apr 15
Full

Hourly Weather History & Observations

Time (CDT) Temp. Windchill Dew Point Humidity Pressure Visibility Wind Dir Wind Speed Gust Speed Precip Events Conditions
12:55 AM 36.0 °F - 30.0 °F 79% 29.88 in 10.0 mi Calm Calm - N/A   Clear
1:55 AM 35.1 °F 29.3 °F 30.0 °F 82% 29.89 in 10.0 mi NE 6.9 mph - N/A   Clear
2:55 AM 34.0 °F 28.0 °F 28.9 °F 82% 29.88 in 10.0 mi ENE 6.9 mph - N/A   Clear
3:55 AM 33.1 °F 30.0 °F 28.9 °F 85% 29.88 in 10.0 mi NE 3.5 mph - N/A   Clear
4:55 AM 30.0 °F 26.5 °F 27.0 °F 88% 29.88 in 9.0 mi East 3.5 mph - N/A   Clear
5:55 AM 32.0 °F 25.6 °F 28.9 °F 88% 29.87 in 9.0 mi East 6.9 mph - N/A   Clear
6:55 AM 33.1 °F 28.7 °F 28.9 °F 85% 29.85 in 8.0 mi ESE 4.6 mph - N/A   Clear
7:55 AM 34.0 °F 28.0 °F 30.0 °F 85% 29.86 in 7.0 mi SE 6.9 mph - N/A   Clear
8:55 AM 39.0 °F 34.0 °F 34.0 °F 82% 29.85 in 9.0 mi SSE 6.9 mph - N/A   Clear
9:55 AM 51.1 °F - 34.0 °F 52% 29.85 in 10.0 mi SSW 10.4 mph - N/A   Clear
10:55 AM 57.0 °F - 30.9 °F 37% 29.86 in 10.0 mi SW 11.5 mph - N/A   Clear
11:55 AM 57.9 °F - 32.0 °F 37% 29.84 in 10.0 mi SW 13.8 mph 19.6 mph N/A   Clear
12:55 PM 59.0 °F - 30.9 °F 35% 29.81 in 10.0 mi SSW 8.1 mph - N/A   Scattered Clouds
1:55 PM 61.0 °F - 30.9 °F 32% 29.81 in 10.0 mi SW 10.4 mph 19.6 mph N/A   Clear
2:55 PM 62.1 °F - 32.0 °F 32% 29.81 in 10.0 mi West 11.5 mph - N/A   Clear
3:55 PM 63.0 °F - 32.0 °F 31% 29.83 in 10.0 mi WNW 17.3 mph - N/A   Clear
4:55 PM 62.1 °F - 33.1 °F 34% 29.84 in 10.0 mi NW 15.0 mph - N/A   Clear
5:55 PM 61.0 °F - 30.0 °F 31% 29.86 in 10.0 mi NNW 18.4 mph 24.2 mph N/A   Clear
6:55 PM 57.0 °F - 28.0 °F 33% 29.90 in 10.0 mi NW 13.8 mph 26.5 mph N/A   Clear
7:55 PM 53.1 °F - 30.0 °F 41% 29.95 in 10.0 mi NNW 12.7 mph 24.2 mph N/A   Clear
8:55 PM 50.0 °F - 28.9 °F 44% 30.00 in 10.0 mi NNW 12.7 mph - N/A   Clear
9:55 PM 46.0 °F 39.0 °F 30.9 °F 56% 30.04 in 10.0 mi NNW 17.3 mph 24.2 mph N/A   Clear
10:55 PM 42.1 °F 34.9 °F 30.9 °F 65% 30.09 in 10.0 mi NNW 13.8 mph - N/A   Partly Cloudy
11:55 PM 37.9 °F 28.2 °F 28.0 °F 68% 30.11 in 10.0 mi NNW 18.4 mph 23.0 mph N/A   Clear